THOR ABLESTAR DEB, 230

Orbit data source: Space-Track

THOR ABLESTAR DEB, 230 is space debris in LEO originally from a launch on Thu, 29 Jun 1961 UTC launched from the Air Force Eastern Test Range (AFETR). Debris objects in space refer to the collection of defunct objects orbiting the Earth. Examples of debris include non-operational satellites, rocket bodies, and fragments generated from explosions, collisions, or faulty payload assembly.

Loading next visibility...
THOR ABLESTAR DEB details
Identifier
230, 1961-015BN
Orbit
LEO
Last TLE update10 hours ago
Origin
Flag of USUSAF SSD (US)
ManufacturerUnknown
MissionSpacecraft
Bus & MotorUnknown
MassUnknown
Launch date (UTC)
1961-06-29 (64 years ago)
Launch vehicleUnknown
Launch site
Air Force Eastern Test Range (AFETR)
Object type
Payload
Rocket body
Debris
Shape & HBRUnknown
Radar Cross SectionSmall (<0.1 m²)

Expand to show TLE details & history

TLE from 10 hours ago
0 THOR ABLESTAR DEB
1 00230U 61015BN  25024.56802727  .00000289  00000-0  25494-3 0  9994
2 00230  66.8813 219.0961 0093545 183.7121 176.3280 13.96622133234727
Epoch: 2025-01-24T13:37Z
Definitive object data (Epoch: 2025-01-24T13:37:57.556Z)
Latitude0.00007°
Longitude-109.52302°
Altitude975.609 km
Speed7.33 km/s
True Right ascension14h 36m 23s
True Declination0° 00' 00"
Sunlit
Object was in daylight at TLE epoch
Visualization TLE readout
Latitude7.09022°
Longitude-107.55425°
Altitude974.903 km
Speed7.331 km/s
Apparent Right ascension14h 09m 10s
Apparent Declination-14° 48' 41"
Sunlit
Object is in daylight
Visualization observer readout
Local Sidereal Time01:16:40
Azimuth331.715° NNW
Elevation-62.394°
Doppler factor1
Orbital elements
Apogee altitude972.015 km
Perigee altitude835.775 km
Semi-major axis7,282.032 km
Eccentricity0.0093545
Inclination66.8813°
RAAN219.0961°
Arg. of periapsis183.7121°
True anomaly176.39586°
Mean anomaly176.328°
Eccentric anomaly176.36201°
Mean motion3.49272 °/min
BSTAR0.00025494
Orbital period103.07 mins
Loading maneuver chart data...

THOR ABLESTAR DEB Visibility forecast

Observer location: undefined°, undefined

Span
Click to sort rows by Start time (UTC) header in descending order
Start Az.
Max El. time (UTC)
Max El. Az.
Max El.
End time (UTC)
End Az.
10 mins2025-01-25 00:31:55.362Z314.239° NW2025-01-25 00:36:55.362Z246.849° WSW31.802°2025-01-25 00:41:55.362Z183.333° SSW
10 mins2025-01-25 13:48:55.362Z180.831° SSW2025-01-25 13:53:55.362Z103.813° ESE37.053°2025-01-25 13:58:55.362Z41.535° NE
9 mins2025-01-25 15:35:55.362Z258.936° W2025-01-25 15:39:55.362Z311.504° NW26.943°2025-01-25 15:44:55.362Z9.47° NNE
9 mins2025-01-25 22:50:55.362Z348.565° N2025-01-25 22:54:55.362Z48.41° ENE34.534°2025-01-25 22:59:55.362Z123.675° SE
|